Baton Rouge, LA

8:08 AM CDT on July 25, 2017 (GMT -0500)
Baton Rouge Metro-Ryan

Weather History for KBTR - February, 2012

Change the Weather History Date:

Friday, February 24, 2012

  Actual Average Record
Temperature  
Mean Temperature 62 °F 57 °F  
Max Temperature 73 °F 68 °F 83 °F (2011)
Min Temperature 51 °F 46 °F 23 °F (1989)
Degree Days  
Heating Degree Days 3 9  
Month to date heating degree days 185 263  
Since 1 July heating degree days 1049 1303  
Cooling Degree Days 0 1  
Month to date cooling degree days 25 22  
Year to date cooling degree days 64 35  
Growing Degree Days 13 (Base 50)    
Moisture  
Dew Point 46 °F    
Average Humidity 62    
Maximum Humidity 100    
Minimum Humidity 23    
Precipitation  
Precipitation 0.07 in 0.18 in 1.75 in (1959)
Month to date precipitation 7.50 4.39  
Year to date precipitation 13.25 10.11  
Snow  
Snow 0.00 in - - ()
Month to date snowfall 0.0  
Since 1 July snowfall 0.0  
Snow Depth 0.00 in    
Sea Level Pressure  
Sea Level Pressure 29.95 in    
Wind  
Wind Speed 8 mph (WNW)    
Max Wind Speed 18 mph    
Max Gust Speed 30 mph    
Visibility 8 miles    
Events Rain    
T = Trace of Precipitation, MM = Missing Value Source: NWS Daily Summary

Daily Weather History Graph

Daily Weather History Graph

Search for Another Location

Airport or City:

Trip Planner

Search our weather history database for the weather conditions in past years. The results will help you decide how hot, cold, wet, or windy it might be!

Date:

Astronomy

Feb. 24, 2012 Rise Set
Actual Time 6:36 AM CST 5:59 PM CST
Civil Twilight 6:12 AM CST 6:23 PM CST
Nautical Twilight 5:44 AM CST 6:51 PM CST
Astronomical Twilight 5:16 AM CST 7:19 PM CST
Moon 7:47 AM CST (2/24) 8:45 PM CST (2/24)
Length of Visible Light 12h 11m
Length of Day
11h 22m
Waxing Crescent, 8% of the Moon is Illuminated
Feb 24
Waxing Crescent
Feb 29
First Quarter
Mar 8
Full
Mar 14
Last Quarter
Mar 22
New

Hourly Weather History & Observations

Time (CST) Temp. Dew Point Humidity Pressure Visibility Wind Dir Wind Speed Gust Speed Precip Events Conditions
12:04 AM 71.6 °F 68.0 °F 88% 29.71 in 10.0 mi WSW 12.7 mph - N/A   Overcast
12:53 AM 72.0 °F 68.0 °F 87% 29.73 in 9.0 mi WSW 13.8 mph - N/A   Overcast
1:53 AM 73.0 °F 68.0 °F 84% 29.72 in 9.0 mi SW 12.7 mph - N/A   Overcast
2:09 AM 71.6 °F 68.0 °F 88% 29.71 in 9.0 mi SW 13.8 mph - N/A   Overcast
2:53 AM 72.0 °F 68.0 °F 87% 29.72 in 8.0 mi SW 10.4 mph - N/A   Overcast
3:53 AM 71.1 °F 68.0 °F 90% 29.74 in 5.0 mi SW 5.8 mph - 0.00 in Rain Light Rain
4:23 AM 71.6 °F 69.8 °F 94% 29.74 in 5.0 mi WSW 8.1 mph - 0.01 in   Overcast
4:30 AM 71.6 °F 69.8 °F 94% 29.74 in 6.0 mi WSW 5.8 mph - 0.01 in   Overcast
4:43 AM 71.6 °F 69.8 °F 94% 29.75 in 6.0 mi SW 11.5 mph - 0.01 in   Overcast
4:51 AM 71.6 °F 69.8 °F 94% 29.75 in 6.0 mi SW 10.4 mph - 0.01 in   Overcast
4:53 AM 71.1 °F 69.1 °F 93% 29.75 in 6.0 mi SW 10.4 mph - 0.01 in   Overcast
5:53 AM 71.1 °F 69.1 °F 93% 29.78 in 6.0 mi WSW 10.4 mph - 0.00 in   Overcast
6:53 AM 70.0 °F 69.1 °F 97% 29.81 in 3.0 mi WSW 8.1 mph - N/A   Overcast
7:12 AM 69.8 °F 69.8 °F 100% 29.82 in 5.0 mi NNW 11.5 mph 27.6 mph N/A   Overcast
7:53 AM 63.0 °F 48.9 °F 60% 29.89 in 10.0 mi NNW 11.5 mph - 0.06 in   Overcast
8:53 AM 62.1 °F 43.0 °F 50% 29.96 in 10.0 mi NNW 9.2 mph 18.4 mph 0.00 in Rain Light Rain
9:53 AM 61.0 °F 30.9 °F 32% 30.00 in 10.0 mi North 13.8 mph 24.2 mph 0.00 in   Overcast
10:53 AM 62.1 °F 24.1 °F 23% 30.03 in 10.0 mi North 11.5 mph 21.9 mph N/A   Overcast
11:53 AM 62.1 °F 28.9 °F 29% 30.05 in 10.0 mi North 10.4 mph 20.7 mph N/A   Mostly Cloudy
12:53 PM 61.0 °F 28.9 °F 30% 30.06 in 10.0 mi NNE 11.5 mph 18.4 mph N/A   Overcast
1:53 PM 60.1 °F 24.1 °F 25% 30.05 in 10.0 mi NNW 10.4 mph 24.2 mph N/A   Clear
2:53 PM 61.0 °F 23.0 °F 23% 30.08 in 10.0 mi North 11.5 mph 20.7 mph N/A   Clear
3:53 PM 60.1 °F 25.0 °F 26% 30.10 in 10.0 mi Variable 6.9 mph - N/A   Clear
4:53 PM 59.0 °F 21.9 °F 24% 30.11 in 10.0 mi North 11.5 mph 16.1 mph N/A   Clear
5:53 PM 57.0 °F 24.1 °F 28% 30.15 in 10.0 mi NNE 3.5 mph - N/A   Clear
6:53 PM 55.9 °F 26.1 °F 32% 30.18 in 10.0 mi Calm Calm - N/A   Clear
7:53 PM 55.9 °F 23.0 °F 28% 30.24 in 10.0 mi NNW 3.5 mph - N/A   Clear
8:53 PM 54.0 °F 27.0 °F 35% 30.24 in 10.0 mi North 3.5 mph - N/A   Clear
9:53 PM 53.1 °F 25.0 °F 34% 30.27 in 10.0 mi North 3.5 mph - N/A   Clear
10:53 PM 53.1 °F 27.0 °F 37% 30.30 in 10.0 mi Calm Calm - N/A   Clear
11:53 PM 52.0 °F 26.1 °F 37% 30.30 in 10.0 mi North 4.6 mph - N/A   Clear